Showing default

PORCUPINE 1, 1272

Orbit data source: Space-Track

PORCUPINE 1, 1272 is a payload satellite owned by NRL (US) in LEO that was launched on Tue, 09 Mar 1965 UTC via a THOR SLV-2 AGENA D launch vehicle from the Air Force Western Test Range (AFWTR). Payload-class satellites include a variety of spacecraft equipped with specific instruments for various scientific and technological missions. These include communications satellites like Starlink; space stations such as the ISS; scientific satellites like the Hubble; Earth observation satellites from companies like Planet Labs, Umbra, and HawkEye 360; GPS; miniature CubeSats for education and research; and military/defense satellites.

Loading next visibility...
Identifier
1272, 1965-016H
Orbit
LEO
Country
Flag of USUS
Related business
Manufacturer
NRL
Mission
Spacecraft
Bus & Motor
NRL 9", Unknown motor
Mass
4 kg wet, 4 kg dry
Launch date (UTC)
1965-03-09 (61 years ago)
Launch vehicle
THOR SLV-2 AGENA D
Launch site
Air Force Western Test Range (AFWTR)
Object type
Payload
Rocket body
Debris
Shape & HBR
SPHERE + 12 ANT, 7.6 m
Radar Cross Section
Medium (>0.1 m² and <1 m²)

Expand to show TLE details & history
Last TLE update: 12 hours ago

TLE from 12 hours ago
0 PORCUPINE 1
1 01272U 65016H   26208.88384684 -.00000007  00000-0  33358-4 0  9991
2 01272  70.0793 163.1888 0019775  66.1684 294.1492 13.94538346122052
Epoch: 2026-07-27T21:12Z
TLE epoch observation values (Epoch: 2026-07-27T21:12:44.366Z)
Latitude
-0.00001°
Longitude
-100.55709°
Altitude
909.21 km
Speed
7.401 km/s
True Right ascension
10h 52m 45s
True Declination
0° 00' 00"
Sunlit
Object was in daylight at epoch
Visualization orbit readout
Latitude
Unknown
Longitude
Unknown
Altitude
Unknown
Speed
Unknown
Apparent Right ascension
Unknown
Apparent Declination
Unknown
Sunlit
N/A
Visualization observer readout
Local Sidereal Time
22:39:41
Azimuth
Unknown
Elevation
Unknown
Doppler factor
Unknown
Orbital elements
Apogee altitude
925.22 km
Perigee altitude
896.392 km
Semi-major axis
7,288.943 km
Eccentricity
0.00198
Inclination
70.0793°
RAAN
163.1888°
Arg. of periapsis
66.1684°
True anomaly
293.94222°
Mean anomaly
294.1492°
Eccentric anomaly
294.04573°
Mean motion
3.48776 °/min
Orbital period
103.22 mins
BSTAR
0.000033358
Loading maneuver chart data...
Computing Atmospheric mass density...
Loading historical data...
Loading historical data...
Loading historical data...
Loading historical data...
Loading historical data...
Loading historical data...
Loading historical data...

Documentation

Showing up to 5 results
|